Regional Weather Roundup
Issued by NWS

Home | Current Version | Previous Version | Graphics & Text | Print | Product List | Glossary On
Versions: 1 2 3 4 5 6 7 8 9 10 11 12 13 14 15 16 17 18 19 20 21 22 23 24 25 26 27 28 29 30 31 32 33 34 35 36 37 38 39 40 41 42 43 44 45 46 47 48 49 50
000
ASUS43 KDMX 302008
RWRIA

WEATHER ROUNDUP FOR IOWA
NATIONAL WEATHER SERVICE DES MOINES IA
300 PM CDT TUE AUG 30 2016

NOTE: "FAIR" INDICATES FEW OR NO CLOUDS BELOW 12,000 FEET WITH NO
SIGNIFICANT WEATHER AND/OR OBSTRUCTIONS TO VISIBILITY.

* - THESE STATIONS ARE NOT NWS STATIONS...THUS NOT UNDER NWS
QUALITY CONTROL.  THEY ALSO DO NOT REPORT WEATHER SUCH
AS PRECIPITATION OR FOG.

IAZ001>003-012>014-020>022-031>034-043>046-302100-
   NORTHWEST IOWA

CITY           SKY/WX    TMP DP  RH WIND       PRES   REMARKS
CARROLL *      CLOUDY    79  66  65 N7        30.17F HX  81
CHEROKEE *     PTSUNNY   80  70  70 NE6       30.18F HX  84
DENISON *      CLOUDY    77  68  73 NW5       30.16F
LE MARS *      CLOUDY    82  68  61 VRB5      30.18F HX  85
ORANGE CITY *  CLOUDY    79  70  73 N6        30.19F HX  81
SHELDON *      CLOUDY    79  70  73 VRB5      30.19S HX  81
SIOUX CITY     CLOUDY    81  68  64 W3        30.17F HX  84
SPENCER        PTSUNNY   80  67  64 N8        30.20F HX  82
STORM LAKE *     N/A     77  68  73 NE6       30.20F
$$

IAZ055>058-069>071-079>083-090>094-302100-
   SOUTHWEST IOWA

CITY           SKY/WX    TMP DP  RH WIND       PRES   REMARKS
ATLANTIC *     CLOUDY    77  70  78 N5        30.16S
AUDUBON *      CLOUDY    77  70  78 N6        30.19F
CLARINDA *       N/A     77  72  83 MISG      30.16F
COUNCIL BLFS *   N/A     77  68  73 CALM      30.16F
CRESTON *      MOSUNNY   75  72  88 NW5       30.17F
HARLAN  *      CLOUDY    77  68  73 N7        30.21R
LAMONI         CLOUDY    77  73  87 N5        30.13F
RED OAK *      CLOUDY    77  70  78 CALM      30.15F
SHENANDOAH *   CLOUDY    79  72  78 CALM      30.14F HX  82
$$

IAZ047>049-059>061-072>074-084-302100-
   CENTRAL IOWA

CITY           SKY/WX    TMP DP  RH WIND       PRES   REMARKS
AMES           CLOUDY    78  71  79 VRB5      30.15F HX  80
ANKENY *         N/A    N/A N/A N/A MISG        N/A
BOONE *        CLOUDY    77  70  78 VRB7      30.16F
CHARITON *       N/A     79  73  83 MISG      30.13F HX  82
DES MOINES     CLOUDY    82  70  66 N6        30.13F HX  86
GRINNELL*      CLOUDY    82  71  67 NW7       30.14F HX  86
KNOXVILLE *    CLOUDY    79  70  73 N8        30.12F HX  81
MARSHALLTOWN   CLOUDY    79  72  79 NW9       30.14F HX  82
NEWTON *       PTSUNNY   81  73  78 NW6       30.13F HX  85
PELLA *        PTSUNNY   81  70  69 N5        30.14  HX  85
PERRY *          N/A     77  72  83 N5        30.16F
$$

IAZ004>006-015-016-023>025-035-036-302100-
   NORTH CENTRAL IOWA

CITY           SKY/WX    TMP DP  RH WIND       PRES   REMARKS
ALGONA *       CLOUDY    75  66  73 N8G15     30.19F
ESTHERVILLE    CLOUDY    76  67  73 N9        30.20F
FORT DODGE *   CLOUDY    77  70  78 NE8       30.18F
MASON CITY     CLOUDY    77  65  66 NW12      30.19F
FOREST CITY *    N/A     73  64  73 N10       30.18F
WEBSTER CITY * CLOUDY    75  72  88 N8        30.15F
IOWA FALLS *   PTSUNNY   77  71  80 N8        30.17F
$$

IAZ007>011-017>019-026>030-037>042-050>054-066-302100-
   NORTHEAST IOWA

CITY           SKY/WX    TMP DP  RH WIND       PRES   REMARKS
CEDAR RAPIDS   MOSUNNY   82  73  74 NW8       30.11F HX  87
CHARLES CITY * CLOUDY    79  68  69 NW8       30.16F HX  81
CLINTON *      MOSUNNY   81  73  76 W6        30.10F HX  86
DECORAH *      CLOUDY    79  68  69 VRB6      30.12F HX  81
DUBUQUE        PTSUNNY   83  70  64 W10       30.11F HX  87
MONTICELLO *   CLOUDY    84  72  65 W9        30.10F HX  89
OELWEIN *      CLOUDY    79  72  78 W12       30.14F HX  82
WATERLOO       CLOUDY    77  70  79 NW8       30.13F
$$

IAZ064-065-067-068-078-302100-
   EAST CENTRAL IOWA

CITY           SKY/WX    TMP DP  RH WIND       PRES   REMARKS
DAVENPORT      MOSUNNY   82  71  69 W7        30.10F HX  86
IOWA CITY      CLOUDY    83  73  72 SW9       30.12F HX  89
MT. PLEASANT * CLOUDY    81  71  72 W3        30.12F HX  85
QUAD CITIES    PTSUNNY   83  71  67 W7        30.09F HX  87
$$

IAZ062-063-075>077-085>089-095>099-302100-
   SOUTHEAST IOWA

CITY           SKY/WX    TMP DP  RH WIND       PRES   REMARKS
BURLINGTON     PTSUNNY   80  73  79 NW6       30.11F HX  84
FAIRFIELD *    CLOUDY    77  72  83 VRB5      30.12F
FORT MADISON * MOSUNNY   81  72  74 W3        30.12F HX  84
KEOKUK *       CLOUDY    77  73  88 SW7       30.11S
OSKALOOSA *    PTSUNNY   76  72  87 CALM      30.13F
CENTERVILLE *    N/A     82  72  69 CALM      30.14F HX  87
OTTUMWA        CLOUDY    77  71  82 NW7       30.13F
WASHINGTON *   CLOUDY    79  73  83 NW3       30.13F HX  82
$$

ABBREVIATIONS USED IN REMARKS
   TC - TEMPERATURES IN CELSIUS
  WCI - WIND CHILL INDEX
   HX - HEAT INDEX
  VSB - VISIBILITY
$$





USA.gov is the U.S. government's official web portal to all federal, state and local government web resources and services.